www.pogodaiklimat.ru

Погода и климат >> Архив погоды >> Ирак >> Khanaqin


ПОГОДА в Khanaqin

  • Прогноз погоды в Khanaqin
  • Монитор погоды в Khanaqin
  • Климат города

АРХИВ ПОГОДЫ в Khanaqin

Время (UTC), дата Ветер
(напр.,м/с)
 
Видим.   Явления Облачность Т
(С)
Тd
(С)
f
(%)
Тe
(С)
Тes
(С)
Комфортность P
(гПа)
Po
(гПа)
Тmin
(С)
Tmax
(С)
R
(мм)
R24
(мм)
S
(см)
21 12.09 штиль 0 10 км ясно +29.1 +11.2 33 +30 +30 жарко 1008.0 1008.0
06 13.09 штиль 0 10 км ясно +33.1 +10.7 25 +33 +44 жарко 1009.7 1010.0 +21.5
09 13.09 З 2 10 км ясно +44.7 +11.7 15 +44 +60 опасность
перегрева
1008.7 1009.0
15 13.09 штиль 0 10 км ясно +42.5 +13.5 18 +42 +42 опасность
перегрева
1008.1 1008.0
18 13.09 штиль 0 10 км ясно +40.5 +13.4 20 +40 +40 очень
жарко
1008.8 1009.0 +47.0
21 13.09 штиль 0 10 км ясно +30.5 +11.6 31 +31 +31 жарко 1005.4 1005.0
06 14.09 ЮЗ 4 10 км ясно +38.8 +13.6 22 +39 +44 очень
жарко
1003.7 1004.0 +25.5
09 14.09 З 4 10 км ясно +41.7 +15.8 22 +43 +54 опасность
перегрева
1003.3 1003.0
12 14.09 З 3 10 км ясно +46.0 +13.4 15 +46 +52 опасность
перегрева
1002.0 1002.0
15 14.09 штиль 0 10 км ясно +43.0 +13.5 18 +43 +43 опасность
перегрева
1002.8 1003.0
18 14.09 штиль 0 10 км ясно +33.2 +13.5 30 +34 +34 очень
жарко
1002.5 1003.0 +48.5
21 14.09 штиль 0 10 км ясно +28.8 +12.3 36 +30 +30 жарко 1004.6 1005.0
03 15.09 штиль 0 10 км ясно +26.5 +13.3 44 +28 +28 жарко 1005.8 1006.0
06 15.09 В 1 10 км ясно +32.0 +10.7 27 +32 +41 жарко 1006.2 1006.0 +26.0
09 15.09 С 1 10 км 3/0
[]
+42.3 +11.7 16 +41 +41 опасность
перегрева
1006.0 1006.0
12 15.09 штиль 0 10 км ясно 0.0 +12.2 100 -1 +9 1004.9 1005.0
15 16.09 штиль 0 10 км ясно +37.7 +11.7 21 +37 +37 очень
жарко
1007.7 1008.0
21 16.09 штиль 0 10 км ясно +27.7 +11.3 36 +29 +29 жарко 1007.6 1008.0
03 17.09 штиль 0 10 км ясно +23.7 +10.5 43 +25 +25 комфорт 1007.5 1008.0
09 17.09 ЮЗ 2 10 км ясно +41.5 +14.1 20 +42 +57 опасность
перегрева
1006.7 1007.0
15 17.09 штиль 0 10 км ясно +37.2 +11.7 22 +37 +37 очень
жарко
1004.8 1005.0
21 17.09 штиль 0 10 км ясно +29.0 +12.1 35 +30 +30 жарко 1005.7 1006.0
15 18.09 штиль 0 10 км 3/0
[Ci fib]
+37.9 +11.8 21 +37 +37 очень
жарко
1005.2 1005.0
21 18.09 штиль 0 10 км ясно +32.0 +12.3 30 +32 +32 жарко 1004.8 1005.0
06 19.09 ЮЗ 1 10 км 8/8 750 м
[Cb cap]
+38.5 +12.1 21 +38 +40 очень
жарко
1006.3 1006.0 +28.5
09 19.09 штиль 0 10 км 4/0
[Ci sp]
+41.9 +13.5 19 +42 +61 опасность
перегрева
1005.8 1006.0
12 19.09 З 2 10 км 5/0
[Ac trans Ci fib]
+41.9 +11.5 17 +41 +47 опасность
перегрева
1003.8 1004.0
15 19.09 штиль 0 10 км 4/0
[Ci sp]
+38.9 +13.0 21 +39 +39 очень
жарко
1004.0 1004.0

 

Местоположение метеостанции Khanaqin (Ирак): широта 34.30 долгота 45.43 высота над уровнем моря 202 м.

В архиве по умолчанию представлена погода в Khanaqin за последнюю неделю. Архивные данные за месяц целиком и за предыдущие месяцы, начиная с января 2011 года, Вы можете получить, выбрав интересующий диапазон дат из раскрывающегося списка и нажав кнопку "Ввод!".


*Определитесь, кто Вы:
робот инопланетянин человек

Внимание! Время в таблицах - всемирное. Для получения местного времени необходимо прибавить поправку, которая в Khanaqin равна 3 ч.

Смотрите также архив погоды в соседних городах и на ближайших метеорологических станциях:

Погода в Tuz (Ирак) (96 км)
Погода в Al-Khalis (Ирак) (98 км)
Погода в Ayn Al-Tamar (Ирак) (106 км)
Погода в Halabcha (Ирак) (111 км)
Погода в Ilam (Иран) (119 км)
Погода в Sulaimaniya (Ирак) (139 км)
Погода в Badrah (Ирак) (142 км)
Погода в Chamchamal (Ирак) (146 км)
Погода в Kermanshah (Иран) (155 км)
Погода в Azizyah (Ирак) (157 км)

Пояснения к столбцам:

Ветер - указаны скорость ветра в м/с - средняя за 10 мин, порывы в срок и между сроками (в фигурных скобках) и направление, откуда дует ветер: С - северный, СВ - северо-восточный, В - восточный, ЮВ - юго-восточный, Ю - южный, ЮЗ - юго-западный, З - западный, СЗ - северо-западный.
Видимость - горизонтальная дальность видимости в метрах или километрах. При видимости от 1 до 10 км при отсутствии осадков обычно наблюдается дымка, при ухудшении видимости до 1 км и менее - туман. В сухую погоду видимость может ухудшаться дымом, пылью или мглою.
Явления - указаны атмосферные явления, наблюдавшиеся в срок или в последний час перед сроком; фигурными скобками обозначены явления, наблюдавшиеся между сроками (за 1-3 часа до срока); квадратными скобками обозначены град или гололедные отложения с указанием их диаметра в мм.
Облачность - указаны через наклонную черту общая и нижняя облачность в баллах и высота нижней границы облаков в метрах; квадратными скобками обозначены формы облаков: Ci - перистые, Cs - перисто-слоистые, Cc - перисто-кучевые, Ac - высококучевые, As - высокослоистые, Sc - слоисто-кучевые, Ns - слоисто-дождевые, Cu - кучевые, Cb - кучево-дождевые. Подробнее классификацию облаков см. в Атласе облаков (PDF).
T - Температура воздуха - температура, измеренная на высоте 2 м над землей.
Td - Температура точки росы - температура, при понижении до которой содержащийся в воздухе водяной пар достигнет насыщения.
f - Относительная влажность воздуха - влажноcть воздуха, измеренная на высоте 2 м над землей.
Te - Эффективная температура - температура, которую ощущает одетый по сезону человек в тени. Характеристика душности погоды. При расчете учитывается влияние влажности воздуха и скорости ветра на теплоощущения человека.
Tes - Эффективная температура на солнце - температура, которую ощущает человек, с поправкой на солнечный нагрев. Характеристика знойности погоды. Зависит от высоты солнца над горизонтом, облачности и скорости ветра. Ночью, в пасмурную погоду, а также при ветре 12 м/с и более поправка равна нулю.
P - Атмосферное давление - приведенное к уровню моря атмосферное давление.
Po - Атмосферное давление - измеренное на уровне метеостанции атмосферное давление.
Tmin - Минимальная температура - минимум температуры воздуха на высоте 2 м над землей.
Tmax - Максимальная температура - максимум температуры воздуха на высоте 2 м над землей.
R - Количество осадков - Количество выпавших осадков за период времени, мм. При наведении курсора мыши на число - период времени, за который выпало указанное количество осадков.
R24 - Количество осадков - Количество выпавших осадков за 24 часа, мм.
S - Снежный покров - Высота снежного покрова, см. При наведении курсора мыши на число - состояние снежного покрова и степень покрытия местности в баллах.